When you browse on this site, cookies collect data to enhance your experience and personalize the content and advertising you see.
Visit our Privacy Policy to learn more. By continuing to use the site, you agree to this use of cookies and data.
  • In Deutschland
  • Länderverzeichnis
  • Für 7 Tage
  • Wassertemperatur
  • Wetterkarte
  • Widgets
  • user-avatar
    Anmelden

    Stündliche Wetter Stavanger

    Heute, 30 März, Montag

    Zeit Temperatur Niederschläge Wind Luftdruck Luftfeuchtigkeit
    00:00 0°C° 0.3 mm 8 m/S 770 mmHg 93%
    01:00 0°C° 0.1 mm 8 m/S 770 mmHg 92%
    02:00 0°C° 0.1 mm 9 m/S 770 mmHg 91%
    03:00 0°C° 0.1 mm 9 m/S 769 mmHg 89%
    04:00 0°C° 0 mm 8 m/S 770 mmHg 89%
    05:00 0°C° 0 mm 7 m/S 770 mmHg 88%
    06:00 -1°C° 0 mm 7 m/S 770 mmHg 88%
    07:00 +1°C° 0 mm 6 m/S 771 mmHg 85%
    08:00 +3°C° 0 mm 4 m/S 771 mmHg 83%
    09:00 +3°C° 0 mm 3 m/S 771 mmHg 80%
    10:00 +3°C° 0 mm 3 m/S 771 mmHg 82%
    11:00 +3°C° 0 mm 3 m/S 772 mmHg 84%
    12:00 +4°C° 0 mm 2 m/S 772 mmHg 86%
    13:00 +3°C° 0.1 mm 3 m/S 772 mmHg 87%
    14:00 +3°C° 0.1 mm 3 m/S 772 mmHg 87%
    15:00 +3°C° 0.1 mm 4 m/S 772 mmHg 88%
    16:00 +1°C° 0 mm 4 m/S 772 mmHg 89%
    17:00 +1°C° 0 mm 4 m/S 772 mmHg 91%
    18:00 0°C° 0 mm 4 m/S 772 mmHg 92%
    19:00 +1°C° 0 mm 3 m/S 772 mmHg 92%
    20:00 0°C° 0 mm 3 m/S 772 mmHg 92%
    21:00 0°C° 0 mm 3 m/S 772 mmHg 93%
    22:00 -1°C° 0 mm 3 m/S 772 mmHg 92%
    23:00 -1°C° 0 mm 3 m/S 772 mmHg 92%

    Morgen, 31 März, Dienstag

    Zeit Temperatur Niederschläge Wind Luftdruck Luftfeuchtigkeit
    00:00 -1°C° 0 mm 3 m/S 772 mmHg 92%
    01:00 -1°C° 0 mm 2 m/S 772 mmHg 93%
    02:00 -1°C° 0 mm 2 m/S 771 mmHg 93%
    03:00 -1°C° 0 mm 2 m/S 771 mmHg 94%
    04:00 +1°C° 0 mm 2 m/S 771 mmHg 94%
    05:00 +2°C° 0 mm 2 m/S 770 mmHg 93%
    06:00 +3°C° 0 mm 2 m/S 770 mmHg 93%
    07:00 +3°C° 0.1 mm 2 m/S 769 mmHg 93%
    08:00 +3°C° 0.1 mm 3 m/S 768 mmHg 92%
    09:00 +3°C° 0.1 mm 3 m/S 768 mmHg 91%
    10:00 +4°C° 0.1 mm 4 m/S 767 mmHg 92%
    11:00 +3°C° 0.1 mm 6 m/S 767 mmHg 92%
    12:00 +3°C° 0.1 mm 7 m/S 766 mmHg 92%
    13:00 +3°C° 0.1 mm 7 m/S 766 mmHg 92%
    14:00 +3°C° 0.1 mm 7 m/S 765 mmHg 92%
    15:00 +2°C° 0.1 mm 8 m/S 764 mmHg 93%
    16:00 +3°C° 0.1 mm 7 m/S 764 mmHg 93%
    17:00 +3°C° 0.1 mm 7 m/S 763 mmHg 93%
    18:00 +3°C° 0.1 mm 7 m/S 763 mmHg 93%
    19:00 +3°C° 0.1 mm 7 m/S 763 mmHg 93%
    20:00 +3°C° 0.1 mm 6 m/S 762 mmHg 93%
    21:00 +3°C° 0.1 mm 6 m/S 762 mmHg 94%
    22:00 +3°C° 0.1 mm 6 m/S 761 mmHg 94%
    23:00 +3°C° 0.1 mm 5 m/S 761 mmHg 95%

    übermorgen, 1 April, Mittwoch

    Zeit Temperatur Niederschläge Wind Luftdruck Luftfeuchtigkeit
    00:00 +3°C° 0.1 mm 5 m/S 760 mmHg 95%
    01:00 +3°C° 0.2 mm 6 m/S 760 mmHg 95%
    02:00 +3°C° 0.2 mm 6 m/S 759 mmHg 95%
    03:00 +3°C° 0.2 mm 7 m/S 758 mmHg 95%
    04:00 +3°C° 0.3 mm 7 m/S 758 mmHg 96%
    05:00 +3°C° 0.3 mm 7 m/S 758 mmHg 96%
    06:00 +2°C° 0.3 mm 8 m/S 757 mmHg 96%
    07:00 +2°C° 0.3 mm 8 m/S 756 mmHg 97%
    08:00 +2°C° 0.3 mm 8 m/S 756 mmHg 97%
    09:00 +2°C° 0.3 mm 8 m/S 755 mmHg 97%
    10:00 +2°C° 1.1 mm 9 m/S 755 mmHg 97%
    11:00 +2°C° 1.1 mm 9 m/S 754 mmHg 98%
    12:00 +3°C° 1.1 mm 9 m/S 753 mmHg 98%
    13:00 +3°C° 0.9 mm 9 m/S 753 mmHg 97%
    14:00 +3°C° 0.9 mm 9 m/S 752 mmHg 97%
    15:00 +3°C° 0.9 mm 9 m/S 751 mmHg 96%
    16:00 +3°C° 0.2 mm 9 m/S 751 mmHg 95%
    17:00 +3°C° 0.2 mm 9 m/S 751 mmHg 95%
    18:00 +3°C° 0.2 mm 9 m/S 751 mmHg 94%
    19:00 +2°C° 0.1 mm 9 m/S 751 mmHg 91%
    20:00 +2°C° 0.1 mm 9 m/S 751 mmHg 88%
    21:00 +2°C° 0.1 mm 9 m/S 752 mmHg 86%
    22:00 +2°C° 0 mm 9 m/S 752 mmHg 87%
    23:00 +1°C° 0 mm 8 m/S 752 mmHg 88%

    2 April, Donnerstag

    Zeit Temperatur Niederschläge Wind Luftdruck Luftfeuchtigkeit
    00:00 +1°C° 0 mm 8 m/S 752 mmHg 89%
    01:00 +2°C° 0 mm 7 m/S 751 mmHg 90%
    02:00 +2°C° 0 mm 6 m/S 751 mmHg 91%
    03:00 +1°C° 0 mm 5 m/S 751 mmHg 91%
    04:00 +2°C° 0.1 mm 5 m/S 750 mmHg 91%
    05:00 +2°C° 0.1 mm 6 m/S 750 mmHg 90%
    06:00 +2°C° 0.1 mm 6 m/S 749 mmHg 89%
    07:00 +2°C° 0.2 mm 7 m/S 748 mmHg 90%
    08:00 +1°C° 0.2 mm 8 m/S 747 mmHg 90%
    09:00 +2°C° 0.2 mm 9 m/S 746 mmHg 91%
    10:00 +2°C° 1.2 mm 10 m/S 745 mmHg 93%
    11:00 +2°C° 1.2 mm 11 m/S 744 mmHg 95%
    12:00 +2°C° 1.2 mm 12 m/S 743 mmHg 97%
    13:00 0°C° 0.5 mm 12 m/S 742 mmHg 94%
    14:00 -1°C° 0.5 mm 13 m/S 742 mmHg 90%
    15:00 -2°C° 0.5 mm 13 m/S 741 mmHg 86%
    16:00 -2°C° 0.4 mm 13 m/S 741 mmHg 84%
    17:00 -2°C° 0.4 mm 14 m/S 740 mmHg 82%
    18:00 -2°C° 0.4 mm 14 m/S 740 mmHg 80%
    19:00 -2°C° 0.3 mm 14 m/S 740 mmHg 81%
    20:00 -2°C° 0.3 mm 14 m/S 741 mmHg 81%
    21:00 -3°C° 0.3 mm 15 m/S 741 mmHg 82%
    22:00 -3°C° 0.5 mm 15 m/S 743 mmHg 79%
    23:00 -3°C° 0.5 mm 15 m/S 744 mmHg 76%

    3 April, Freitag

    Zeit Temperatur Niederschläge Wind Luftdruck Luftfeuchtigkeit
    00:00 -4°C° 0.5 mm 15 m/S 745 mmHg 73%
    01:00 -4°C° 0.4 mm 14 m/S 746 mmHg 74%
    02:00 -4°C° 0.4 mm 14 m/S 746 mmHg 75%
    03:00 -4°C° 0.4 mm 14 m/S 747 mmHg 76%
    04:00 -4°C° 0.3 mm 13 m/S 748 mmHg 75%
    05:00 -4°C° 0.3 mm 13 m/S 749 mmHg 73%
    06:00 -5°C° 0.3 mm 13 m/S 750 mmHg 72%
    07:00 -4°C° 0.2 mm 13 m/S 750 mmHg 71%
    08:00 -4°C° 0.2 mm 13 m/S 751 mmHg 70%
    09:00 -4°C° 0.2 mm 13 m/S 752 mmHg 69%
    10:00 -2°C° 0.1 mm 12 m/S 753 mmHg 69%
    11:00 -2°C° 0.1 mm 12 m/S 753 mmHg 70%
    12:00 -2°C° 0.1 mm 11 m/S 754 mmHg 71%
    13:00 -2°C° 0.2 mm 11 m/S 755 mmHg 70%
    14:00 -2°C° 0.2 mm 11 m/S 755 mmHg 69%
    15:00 -2°C° 0.2 mm 11 m/S 756 mmHg 69%
    16:00 -2°C° 0.2 mm 10 m/S 757 mmHg 70%
    17:00 -3°C° 0.2 mm 10 m/S 757 mmHg 71%
    18:00 -3°C° 0.2 mm 10 m/S 758 mmHg 73%
    19:00 -3°C° 0.1 mm 10 m/S 758 mmHg 74%
    20:00 -4°C° 0.1 mm 9 m/S 759 mmHg 76%
    21:00 -4°C° 0.1 mm 9 m/S 760 mmHg 77%
    22:00 -4°C° 0.1 mm 9 m/S 761 mmHg 78%
    23:00 -2°C° 0.1 mm 8 m/S 761 mmHg 78%

    4 April, Samstag

    Zeit Temperatur Niederschläge Wind Luftdruck Luftfeuchtigkeit
    00:00 -2°C° 0.1 mm 8 m/S 762 mmHg 78%
    01:00 -4°C° 0.1 mm 8 m/S 762 mmHg 79%
    02:00 -3°C° 0.1 mm 7 m/S 763 mmHg 79%
    03:00 -3°C° 0.1 mm 6 m/S 763 mmHg 80%
    04:00 -2°C° 0 mm 5 m/S 764 mmHg 81%
    05:00 -2°C° 0 mm 4 m/S 764 mmHg 82%
    06:00 -1°C° 0 mm 3 m/S 764 mmHg 83%
    07:00 +1°C° 0 mm 2 m/S 765 mmHg 79%
    08:00 +3°C° 0 mm 1 m/S 765 mmHg 76%
    09:00 +4°C° 0 mm 1 m/S 765 mmHg 73%
    10:00 +3°C° 0 mm 2 m/S 765 mmHg 73%
    11:00 +4°C° 0 mm 2 m/S 765 mmHg 72%
    12:00 +3°C° 0 mm 3 m/S 765 mmHg 72%
    13:00 +3°C° 0 mm 4 m/S 765 mmHg 76%
    14:00 +3°C° 0 mm 4 m/S 765 mmHg 80%
    15:00 +2°C° 0 mm 5 m/S 765 mmHg 84%
    16:00 +2°C° 0 mm 5 m/S 765 mmHg 87%
    17:00 +1°C° 0 mm 4 m/S 765 mmHg 89%
    18:00 +1°C° 0 mm 4 m/S 765 mmHg 91%
    19:00 +1°C° 0 mm 4 m/S 765 mmHg 92%
    20:00 +1°C° 0 mm 4 m/S 765 mmHg 93%
    21:00 +1°C° 0 mm 4 m/S 765 mmHg 94%
    22:00 +1°C° 0.1 mm 5 m/S 765 mmHg 94%
    23:00 +1°C° 0.1 mm 5 m/S 765 mmHg 95%
    Mehr zeigen